KB3HHA-13 Weather Reports


time (UTC)temp
C
wind
direction
speed
KPH
gust
KPH
rain 1hr
cm
rain 24hr
cm
rain mn
cm
humidity
%
barometer
mb
20260507160702 16 0 0.0 6.4 0.00 0.23 0.15 49 1011.4
20260507160200 16 0 3.2 6.4 0.00 0.23 0.15 52 1011.4
20260507155701 16 67 0.0 9.7 0.00 0.23 0.15 52 1011.4
20260507155202 15 90 4.8 9.7 0.00 0.23 0.15 51 1011.6
20260507154700 15 67 0.0 6.4 0.00 0.23 0.15 53 1011.6
20260507154201 15 0 3.2 6.4 0.00 0.23 0.15 55 1011.7
20260507153702 15 337 3.2 6.4 0.00 0.23 0.15 54 1011.8
20260507153201 14 22 1.6 6.4 0.00 0.23 0.15 55 1011.9
20260507152701 14 22 1.6 4.8 0.00 0.23 0.15 56 1011.8
20260507152201 13 22 1.6 4.8 0.00 0.23 0.15 57 1011.9
20260507151702 13 45 0.0 4.8 0.00 0.23 0.15 60 1011.9
20260507151201 13 45 0.0 1.6 0.00 0.23 0.15 61 1012.0
20260507150700 13 0 0.0 1.6 0.00 0.23 0.15 61 1012.2
20260507150200 12 45 0.0 0.0 0.00 0.23 0.15 63 1012.2
20260507145701 12 22 0.0 0.0 0.00 0.23 0.15 61 1012.3
20260507145200 12 0 0.0 0.0 0.00 0.23 0.15 59 1012.3
20260507144702 12 22 0.0 0.0 0.00 0.23 0.15 63 1012.3
20260507144200 12 0 0.0 0.0 0.00 0.23 0.15 63 1012.4
20260507143700 12 22 0.0 1.6 0.00 0.23 0.15 64 1012.5
20260507143201 12 45 0.0 1.6 0.00 0.23 0.15 65 1012.6
20260507142701 12 0 0.0 1.6 0.00 0.23 0.15 72 1012.5
20260507142201 12 0 0.0 1.6 0.00 0.23 0.15 71 1012.7
20260507141700 12 22 0.0 1.6 0.00 0.23 0.15 69 1012.8
20260507141211 12 45 0.0 1.6 0.00 0.23 0.15 70 1012.7
20260507140702 12 45 0.0 0.0 0.00 0.23 0.15 73 1012.8
20260507140202 11 45 0.0 1.6 0.00 0.23 0.15 74 1012.8
20260507135700 11 45 0.0 1.6 0.00 0.36 0.15 77 1012.9
20260507135201 11 45 0.0 0.0 0.00 0.36 0.15 78 1012.9
20260507134701 11 45 0.0 0.0 0.00 0.36 0.15 77 1012.9
20260507134200 11 45 0.0 0.0 0.00 0.36 0.15 79 1012.9
20260507133700 11 45 0.0 0.0 0.00 0.36 0.15 79 1012.9
20260507133200 11 22 0.0 0.0 0.00 0.36 0.15 78 1012.9
20260507132700 11 0 0.0 0.0 0.00 0.36 0.15 78 1012.9
20260507132201 11 0 0.0 0.0 0.00 0.36 0.15 79 1013.0
20260507131700 11 0 0.0 0.0 0.00 0.36 0.15 80 1013.1
20260507131200 11 0 0.0 0.0 0.00 0.36 0.15 80 1013.0
20260507130701 11 0 0.0 0.0 0.00 0.36 0.15 80 1013.0
20260507130201 11 0 0.0 1.6 0.00 0.36 0.15 81 1012.9
20260507125700 11 0 0.0 1.6 0.00 0.53 0.15 82 1013.0
20260507125200 11 0 0.0 0.0 0.00 0.53 0.15 83 1013.1
20260507124700 10 0 0.0 1.6 0.00 0.53 0.15 85 1013.0
20260507124202 11 45 0.0 1.6 0.00 0.53 0.15 91 1013.0
20260507123701 11 45 0.0 0.0 0.00 0.53 0.15 93 1013.0
20260507123200 11 45 0.0 0.0 0.00 0.53 0.15 93 1012.9
20260507122701 10 45 0.0 0.0 0.00 0.53 0.15 92 1012.9
20260507122200 10 45 0.0 0.0 0.00 0.53 0.15 91 1012.9
20260507121705 10 45 0.0 0.0 0.00 0.53 0.15 91 1012.9
20260507121200 10 45 0.0 0.0 0.00 0.53 0.15 90 1012.9
20260507120701 10 45 0.0 0.0 0.00 0.53 0.15 90 1012.8
20260507120202 10 45 0.0 0.0 0.00 0.53 0.15 90 1012.7
20260507115701 10 45 0.0 0.0 0.00 0.69 0.15 91 1012.6
20260507115200 10 45 0.0 0.0 0.00 0.69 0.15 91 1012.6
20260507114700 10 45 0.0 0.0 0.00 0.69 0.15 92 1012.6
20260507114200 10 45 0.0 0.0 0.00 0.69 0.15 92 1012.6
20260507113701 10 45 0.0 0.0 0.00 0.69 0.15 92 1012.6
20260507113201 10 45 0.0 1.6 0.00 0.69 0.15 92 1012.5
20260507112701 10 45 0.0 1.6 0.00 0.69 0.15 92 1012.5
20260507112202 10 45 0.0 0.0 0.00 0.69 0.15 92 1012.7
20260507111700 10 45 0.0 0.0 0.00 0.69 0.15 93 1012.7
20260507111201 10 45 0.0 0.0 0.00 0.69 0.15 94 1012.5
20260507110710 10 45 0.0 1.6 0.00 0.69 0.15 94 1012.6
20260507110200 10 45 0.0 1.6 0.00 0.69 0.15 95 1012.5
20260507105703 10 45 0.0 0.0 0.00 0.76 0.15 95 1012.4
20260507105201 10 45 0.0 0.0 0.00 0.76 0.15 95 1012.5
20260507104700 10 45 0.0 0.0 0.00 0.76 0.15 95 1012.4
20260507104201 10 45 0.0 0.0 0.00 0.76 0.15 95 1012.2
20260507103702 10 45 0.0 0.0 0.00 0.76 0.15 95 1012.0
20260507103201 11 45 0.0 0.0 0.00 0.76 0.15 96 1012.0
20260507102700 11 45 0.0 0.0 0.00 0.76 0.15 96 1012.2
20260507102202 11 45 0.0 0.0 0.00 0.76 0.15 95 1012.0
20260507101700 11 45 0.0 0.0 0.00 0.76 0.15 95 1011.9
20260507101202 11 45 0.0 0.0 0.00 0.76 0.15 95 1011.8
20260507100701 11 45 0.0 0.0 0.00 0.76 0.15 95 1011.7
20260507100202 11 45 0.0 0.0 0.00 0.76 0.15 95 1011.7
20260507095701 11 45 0.0 0.0 0.00 0.76 0.15 95 1011.6
20260507095201 11 45 0.0 0.0 0.00 0.76 0.15 96 1011.7
20260507094701 11 45 0.0 0.0 0.00 0.76 0.15 95 1011.7
20260507094201 11 45 0.0 0.0 0.00 0.76 0.15 95 1011.6
20260507093700 11 45 0.0 0.0 0.00 0.76 0.15 95 1011.6
20260507093202 11 45 0.0 0.0 0.00 0.76 0.15 96 1011.7
20260507092703 11 45 0.0 0.0 0.00 0.76 0.15 96 1011.6
20260507092201 11 45 0.0 0.0 0.00 0.76 0.15 96 1011.5
20260507091701 11 45 0.0 0.0 0.00 0.76 0.15 96 1011.5
20260507091202 11 45 0.0 0.0 0.00 0.76 0.15 96 1011.5
20260507090700 11 45 0.0 0.0 0.00 0.76 0.15 95 1011.5
20260507090201 11 45 0.0 0.0 0.00 0.76 0.15 95 1011.5
20260507085702 11 45 0.0 0.0 0.00 0.76 0.15 96 1011.6
20260507085201 11 45 0.0 0.0 0.00 0.76 0.15 96 1011.6
20260507084700 11 45 0.0 0.0 0.00 0.76 0.15 96 1011.5
20260507084201 12 45 0.0 0.0 0.00 0.76 0.15 96 1011.4
20260507083701 12 45 0.0 0.0 0.00 0.76 0.15 96 1011.3
20260507083200 12 45 0.0 0.0 0.00 0.76 0.15 96 1011.5
20260507082700 11 45 0.0 0.0 0.00 0.76 0.15 96 1011.3
20260507082201 11 45 0.0 0.0 0.00 0.76 0.15 96 1011.3
20260507081701 11 45 0.0 0.0 0.00 0.76 0.15 95 1011.1
20260507081201 11 45 0.0 0.0 0.00 0.76 0.15 95 1011.0
20260507080702 11 45 0.0 0.0 0.00 0.76 0.15 95 1010.8
20260507080200 11 45 0.0 0.0 0.00 0.76 0.15 95 1010.8
20260507075701 11 45 0.0 0.0 0.03 0.76 0.15 95 1010.7
20260507075201 12 45 0.0 0.0 0.03 0.76 0.15 95 1010.8
20260507074701 12 45 0.0 0.0 0.03 0.76 0.15 95 1010.7
20260507074200 12 45 0.0 0.0 0.03 0.76 0.15 95 1010.7
20260507073703 12 45 0.0 0.0 0.03 0.76 0.15 95 1010.6
20260507073202 12 45 0.0 0.0 0.03 0.76 0.15 95 1010.6
20260507072701 12 45 0.0 0.0 0.03 0.76 0.15 95 1010.5
20260507072201 12 45 0.0 0.0 0.03 0.76 0.15 95 1010.6
20260507071701 12 45 0.0 0.0 0.03 0.76 0.15 95 1010.7
20260507071201 12 45 0.0 0.0 0.03 0.76 0.15 95 1010.7
20260507070700 12 45 0.0 0.0 0.03 0.76 0.15 95 1010.7
20260507070200 12 45 0.0 0.0 0.00 0.74 0.13 95 1010.7
20260507065700 12 45 0.0 0.0 0.10 0.74 0.13 95 1010.7
20260507065202 12 22 0.0 0.0 0.10 0.74 0.13 95 1010.6
20260507064700 12 45 0.0 0.0 0.10 0.74 0.13 95 1010.8
20260507064200 13 45 0.0 0.0 0.10 0.74 0.13 95 1010.8
20260507063701 13 45 0.0 1.6 0.08 0.71 0.10 95 1011.0
20260507063202 13 45 0.0 1.6 0.08 0.71 0.10 95 1011.0
20260507062700 13 45 0.0 1.6 0.00 0.64 0.03 95 1011.1
20260507062200 13 45 0.0 0.0 0.00 0.64 0.03 95 1011.2
20260507061700 13 45 0.0 0.0 0.00 0.64 0.03 95 1011.0
20260507061200 13 45 0.0 0.0 0.00 0.64 0.03 95 1010.9
20260507060701 13 45 0.0 1.6 0.00 0.64 0.03 95 1010.7
20260507060200 13 45 0.0 1.6 0.00 0.64 0.03 95 1010.8
20260507055700 13 45 0.0 1.6 0.00 0.64 0.03 95 1011.0
20260507055201 13 45 0.0 0.0 0.00 0.64 0.03 95 1010.9
20260507054701 13 45 0.0 0.0 0.00 0.64 0.03 94 1010.8
20260507054203 13 45 0.0 0.0 0.00 0.64 0.03 94 1010.9
20260507053700 13 45 0.0 0.0 0.00 0.64 0.03 94 1010.9
20260507053200 13 45 0.0 0.0 0.00 0.64 0.03 94 1010.9
20260507052700 13 45 0.0 0.0 0.00 0.64 0.03 94 1011.0
20260507052202 13 45 0.0 0.0 0.00 0.64 0.03 94 1010.9
20260507051701 13 45 0.0 0.0 0.00 0.64 0.03 94 1010.9
20260507051201 13 45 0.0 0.0 0.00 0.64 0.03 94 1010.9
20260507050701 13 45 0.0 0.0 0.00 0.64 0.03 93 1011.3
20260507050200 13 45 0.0 0.0 0.00 0.64 0.03 93 1011.1
20260507045700 13 45 0.0 0.0 0.03 0.64 0.03 93 1010.8
20260507045202 13 45 0.0 3.2 0.03 0.64 0.03 93 1010.5
20260507044701 13 45 0.0 3.2 0.03 0.64 0.03 93 1011.0
20260507044201 13 45 0.0 1.6 0.03 0.64 0.03 92 1011.0
20260507043700 13 45 0.0 0.0 0.03 0.64 0.03 92 1011.2
20260507043201 13 45 0.0 0.0 0.03 0.64 0.03 91 1011.0
20260507042700 13 45 0.0 3.2 0.03 0.64 0.03 91 1010.7
20260507042200 13 67 0.0 3.2 0.00 0.61 0.00 90 1010.8
20260507041701 13 90 0.0 4.8 0.00 0.61 0.00 90 1011.0
20260507041201 14 67 0.0 4.8 0.00 0.61 0.00 90 1011.0
20260507040702 14 45 0.0 0.0 0.00 0.61 0.00 89 1011.0
20260507040202 14 45 0.0 0.0 0.00 0.61 0.00 89 1011.0
20260507035702 15 22 0.0 1.6 0.08 0.61 0.61 87 1010.8
20260507035203 15 45 0.0 6.4 0.08 0.61 0.61 86 1010.7
20260507034701 15 22 1.6 6.4 0.05 0.58 0.58 86 1010.6
20260507034203 15 0 0.0 3.2 0.05 0.58 0.58 84 1010.5
20260507033701 16 45 0.0 3.2 0.03 0.56 0.56 83 1010.3
20260507033200 16 45 0.0 4.8 0.00 0.53 0.53 84 1010.3
20260507032701 16 45 1.6 4.8 0.00 0.53 0.53 85 1010.5
20260507032201 16 45 0.0 1.6 0.00 0.53 0.53 86 1010.4
20260507031700 16 22 0.0 0.0 0.00 0.53 0.53 86 1010.4
20260507031200 16 0 0.0 0.0 0.00 0.53 0.53 85 1010.3
20260507030701 16 0 0.0 0.0 0.00 0.53 0.53 84 1010.3
20260507030200 16 0 0.0 0.0 0.00 0.53 0.53 83 1010.4
20260507025701 16 0 0.0 0.0 0.00 0.53 0.53 82 1010.3
20260507025201 16 0 0.0 1.6 0.00 0.53 0.53 81 1009.9
20260507024700 16 45 0.0 1.6 0.00 0.53 0.53 80 1009.8
20260507024202 16 45 0.0 3.2 0.00 0.53 0.53 80 1009.8
20260507023701 16 45 0.0 4.8 0.00 0.53 0.53 81 1009.8
20260507023200 16 45 0.0 4.8 0.00 0.53 0.53 81 1010.0
20260507022700 17 45 0.0 4.8 0.00 0.53 0.53 82 1009.7
20260507022200 17 45 0.0 6.4 0.00 0.53 0.53 82 1009.8
20260507021702 17 45 0.0 6.4 0.00 0.53 0.53 82 1009.7
20260507021200 17 45 0.0 3.2 0.00 0.53 0.53 82 1009.7
20260507020700 17 0 0.0 1.6 0.00 0.53 0.53 82 1009.7
20260507020202 17 22 0.0 1.6 0.00 0.53 0.53 82 1009.6
20260507015701 17 45 0.0 6.4 0.00 0.53 0.53 81 1009.5
20260507015200 17 45 0.0 6.4 0.00 0.53 0.53 81 1009.6
20260507014702 17 45 0.0 3.2 0.00 0.53 0.53 82 1009.7
20260507014200 17 22 0.0 3.2 0.00 0.53 0.53 82 1009.7
20260507013701 17 22 0.0 3.2 0.00 0.53 0.53 83 1009.4
20260507013200 17 45 0.0 3.2 0.00 0.53 0.53 84 1009.6
20260507012700 17 45 0.0 1.6 0.00 0.53 0.53 84 1009.6
20260507012200 18 0 0.0 3.2 0.00 0.53 0.53 85 1009.4
20260507011702 18 45 0.0 4.8 0.00 0.53 0.53 85 1009.5
20260507011202 18 67 0.0 4.8 0.00 0.53 0.53 84 1009.6
20260507010703 18 67 0.0 6.4 0.00 0.53 0.53 84 1009.7
20260507010200 18 45 1.6 8.0 0.00 0.53 0.53 83 1009.7
20260507005701 18 45 3.2 8.0 0.00 0.53 0.53 84 1009.5
20260507005200 18 22 0.0 6.4 0.00 0.53 0.53 84 1009.7
20260507004701 19 90 0.0 6.4 0.00 0.53 0.53 83 1009.8
20260507004200 19 45 0.0 8.0 0.00 0.53 0.53 83 1009.6
20260507003701 19 67 0.0 8.0 0.00 0.53 0.53 82 1009.5
20260507003201 19 45 1.6 9.7 0.00 0.53 0.53 83 1009.3
20260507002700 20 67 1.6 9.7 0.00 0.53 0.53 82 1009.2
20260507002200 20 67 3.2 8.0 0.00 0.53 0.53 82 1009.2
20260507001700 20 67 3.2 8.0 0.00 0.53 0.53 85 1009.2
20260507001201 20 67 0.0 0.0 0.00 0.53 0.53 85 1009.0
20260507000700 20 90 0.0 0.0 0.00 0.53 0.53 84 1008.8
20260507000204 20 90 0.0 0.0 0.00 0.53 0.53 84 1008.7
20260506235702 20 90 0.0 0.0 0.00 0.53 0.53 84 1008.7
20260506235200 20 90 0.0 0.0 0.00 0.53 0.53 83 1008.5
20260506234700 20 90 0.0 0.0 0.00 0.53 0.53 83 1008.5
20260506234201 20 90 0.0 0.0 0.00 0.53 0.53 83 1008.5
20260506233701 20 90 0.0 0.0 0.00 0.53 0.53 82 1008.4
20260506233201 20 90 0.0 0.0 0.00 0.53 0.53 82 1008.2
20260506232702 20 90 0.0 0.0 0.00 0.53 0.53 82 1008.1
20260506232201 20 90 0.0 0.0 0.00 0.53 0.53 81 1008.2
20260506231702 20 90 0.0 1.6 0.00 0.53 0.53 81 1008.2
20260506231202 21 90 0.0 3.2 0.00 0.53 0.53 81 1008.2
20260506230703 21 90 0.0 3.2 0.00 0.53 0.53 81 1008.0
20260506230201 21 90 0.0 3.2 0.00 0.53 0.53 81 1007.9
20260506225701 21 90 0.0 3.2 0.00 0.53 0.53 81 1008.0
20260506225201 21 90 0.0 3.2 0.00 0.53 0.53 81 1008.0
20260506224701 21 90 1.6 4.8 0.00 0.53 0.53 81 1008.0
20260506224200 21 90 0.0 4.8 0.00 0.53 0.53 81 1008.0
20260506223702 21 90 0.0 4.8 0.00 0.53 0.53 81 1008.0
20260506223201 20 67 0.0 1.6 0.00 0.53 0.53 81 1007.9
20260506222700 20 90 0.0 1.6 0.00 0.53 0.53 81 1007.8
20260506222200 20 90 0.0 1.6 0.00 0.53 0.53 81 1007.8
20260506221701 20 90 0.0 1.6 0.00 0.53 0.53 81 1007.8
20260506221202 20 90 0.0 1.6 0.00 0.53 0.53 80 1007.9
20260506220702 20 90 0.0 1.6 0.00 0.53 0.53 80 1008.0
20260506220200 20 90 0.0 1.6 0.00 0.53 0.53 80 1008.0
20260506215701 20 90 0.0 4.8 0.00 0.53 0.53 80 1007.9
20260506215201 21 67 0.0 6.4 0.00 0.53 0.53 79 1008.0
20260506214701 21 67 0.0 6.4 0.00 0.53 0.53 79 1008.0
20260506214200 21 67 0.0 8.0 0.00 0.53 0.53 79 1008.0
20260506213700 21 90 1.6 8.0 0.00 0.53 0.53 78 1008.0
20260506213201 21 67 3.2 8.0 0.00 0.53 0.53 78 1007.9
20260506212701 21 90 0.0 4.8 0.00 0.53 0.53 78 1007.8
20260506212201 21 90 0.0 8.0 0.00 0.53 0.53 78 1007.7
20260506211702 21 67 3.2 8.0 0.00 0.53 0.53 77 1007.6
20260506211200 21 90 1.6 8.0 0.00 0.53 0.53 77 1007.6
20260506210701 21 90 1.6 8.0 0.00 0.53 0.53 76 1007.5
20260506210201 21 90 0.0 9.7 0.00 0.53 0.53 76 1007.5
20260506205700 21 90 3.2 9.7 0.00 0.53 0.53 77 1007.4
20260506205202 21 90 1.6 11.3 0.00 0.53 0.53 77 1007.4
20260506204700 21 90 3.2 14.5 0.00 0.53 0.53 77 1007.3
20260506204201 21 90 3.2 14.5 0.00 0.53 0.53 76 1007.4
20260506203700 21 67 1.6 8.0 0.00 0.53 0.53 76 1007.4
20260506203201 21 90 0.0 8.0 0.00 0.53 0.53 76 1007.2
20260506202701 21 67 1.6 6.4 0.00 0.53 0.53 77 1007.4
20260506202200 21 67 1.6 8.0 0.00 0.53 0.53 77 1007.3
20260506201701 21 90 0.0 9.7 0.00 0.53 0.53 76 1007.5
20260506201201 21 90 0.0 9.7 0.00 0.53 0.53 76 1007.5
20260506200700 21 67 1.6 14.5 0.00 0.53 0.53 76 1007.6
20260506200201 21 90 1.6 14.5 0.00 0.53 0.53 74 1007.5
20260506195700 21 67 4.8 14.5 0.00 0.53 0.53 75 1007.4
20260506195200 21 90 1.6 11.3 0.00 0.53 0.53 76 1007.5
20260506194702 21 112 3.2 17.7 0.00 0.53 0.53 74 1007.4
20260506194200 21 90 6.4 17.7 0.00 0.53 0.53 75 1007.5
20260506193700 21 112 3.2 14.5 0.00 0.53 0.53 75 1007.5
20260506193201 21 67 6.4 14.5 0.00 0.53 0.53 75 1007.6
20260506192701 21 90 1.6 12.9 0.00 0.53 0.53 76 1007.6
20260506192200 21 67 4.8 12.9 0.00 0.53 0.53 76 1007.6
20260506191701 21 90 3.2 12.9 0.00 0.53 0.53 77 1007.6
20260506191201 21 90 3.2 14.5 0.00 0.53 0.53 77 1007.7
20260506190700 21 135 3.2 14.5 0.00 0.53 0.53 77 1007.7
20260506190200 21 90 3.2 14.5 0.00 0.53 0.53 78 1007.7
20260506185700 20 90 3.2 12.9 0.00 0.53 0.53 78 1007.6
20260506185202 20 90 3.2 16.1 0.00 0.53 0.53 79 1007.8
20260506184700 20 112 6.4 16.1 0.00 0.53 0.53 79 1007.8
20260506184200 20 112 4.8 17.7 0.00 0.53 0.53 80 1007.8
20260506183700 20 67 6.4 17.7 0.00 0.53 0.53 80 1008.0
20260506183201 20 135 6.4 14.5 0.00 0.53 0.53 81 1008.1
20260506182702 20 112 6.4 14.5 0.00 0.53 0.53 80 1008.1
20260506182202 20 90 3.2 11.3 0.00 0.53 0.53 80 1008.0
20260506181700 20 90 4.8 11.3 0.00 0.53 0.53 81 1008.2
20260506181202 20 90 3.2 11.3 0.00 0.53 0.53 81 1008.2
20260506180702 20 90 3.2 9.7 0.00 0.53 0.53 81 1008.1
20260506180200 20 90 3.2 14.5 0.00 0.53 0.53 82 1008.2
20260506175700 19 90 3.2 14.5 0.00 0.53 0.53 82 1008.2
20260506175200 19 90 4.8 12.9 0.00 0.53 0.53 82 1008.2
20260506174702 19 67 3.2 17.7 0.00 0.53 0.53 83 1008.3
20260506174200 19 90 1.6 17.7 0.00 0.53 0.53 83 1008.2
20260506173700 19 112 3.2 17.7 0.00 0.53 0.53 83 1008.4
20260506173201 18 90 4.8 17.7 0.00 0.53 0.53 84 1008.3
20260506172701 18 112 4.8 14.5 0.00 0.53 0.53 85 1008.3
20260506172203 18 112 4.8 11.3 0.00 0.53 0.53 85 1008.3
20260506171700 18 90 4.8 16.1 0.00 0.53 0.53 86 1008.2
20260506171202 18 112 4.8 17.7 0.00 0.53 0.53 86 1008.3
20260506170701 18 112 6.4 17.7 0.00 0.53 0.53 87 1008.3
20260506170202 18 112 3.2 17.7 0.00 0.53 0.53 87 1008.5
20260506165700 17 135 6.4 14.5 0.00 0.53 0.53 88 1008.5
20260506165200 17 135 6.4 17.7 0.00 0.53 0.53 88 1008.5
20260506164701 17 90 3.2 17.7 0.00 0.53 0.53 89 1008.5
20260506164203 17 90 3.2 9.7 0.00 0.53 0.53 89 1008.5
20260506163701 17 112 3.2 11.3 0.00 0.53 0.53 89 1008.5
20260506163200 17 90 4.8 17.7 0.00 0.53 0.53 90 1008.6
20260506162701 17 112 1.6 19.3 0.00 0.53 0.53 91 1008.7
20260506162200 17 135 3.2 19.3 0.00 0.53 0.53 91 1008.7
20260506161701 17 112 6.4 17.7 0.00 0.53 0.53 92 1008.7
20260506161201 17 67 1.6 9.7 0.00 0.53 0.53 92 1008.7